Weather History for KAST - November, 2013

Change the Weather History Date:

Monday, November 11, 2013

  Actual Average Record
Temperature  
Mean Temperature 51 °F 48 °F  
Max Temperature 61 °F 55 °F 71 °F (1999)
Min Temperature 41 °F 41 °F 24 °F (1978)
Degree Days  
Heating Degree Days 14 17  
Month to date heating degree days 169 180  
Since 1 July heating degree days 986 1047  
Cooling Degree Days 0 0  
Month to date cooling degree days 0 0  
Year to date cooling degree days 9 12  
Growing Degree Days 1 (Base 50)    
Moisture  
Dew Point 43 °F    
Average Humidity 77    
Maximum Humidity 100    
Minimum Humidity 53    
Precipitation  
Precipitation 0.00 in 0.37 in 2.00 in (1951)
Month to date precipitation 2.65 3.64  
Year to date precipitation 51.75 49.86  
Snow  
Snow 0.00 in - - ()
Month to date snowfall 0.0  
Snow Depth 0.00 in    
Sea Level Pressure  
Sea Level Pressure 30.04 in    
Wind  
Wind Speed 6 mph (ESE)    
Max Wind Speed 16 mph    
Max Gust Speed 24 mph    
Visibility 6 miles    
Events      
T = Trace of Precipitation, MM = Missing Value Source: NWS Daily Summary

Daily Weather History Graph

Daily Weather History Graph

Search for Another Location

Airport or City:

Trip Planner

Search our weather history database for the weather conditions in past years. The results will help you decide how hot, cold, wet, or windy it might be!

Date:

Astronomy

Nov. 11, 2013 Rise Set
Actual Time 7:11 AM PST 4:47 PM PST
Civil Twilight 6:39 AM PST 5:19 PM PST
Nautical Twilight 6:02 AM PST 5:55 PM PST
Astronomical Twilight 5:27 AM PST 6:30 PM PST
Moon 1:49 PM PST (11/11) 12:42 AM PST (11/11)
Length of Visible Light 10h 40m
Length of Day
9h 36m
Waxing Gibbous, 67% of the Moon is Illuminated
Nov 11
Waxing Gibbous
Nov 17
Full
Nov 25
Last Quarter
Dec 2
New
Dec 9
First Quarter

Hourly Weather History & Observations

Time (PST) Temp. Windchill Dew Point Humidity Pressure Visibility Wind Dir Wind Speed Gust Speed Precip Events Conditions
12:55 AM 46.9 °F - 46.0 °F 97% 30.07 in 7.0 mi Calm Calm - N/A   Overcast
1:18 AM 46.4 °F - 44.6 °F 93% 30.06 in 6.0 mi Calm Calm - N/A   Overcast
1:44 AM 44.6 °F - 44.6 °F 100% 30.06 in 6.0 mi Calm Calm - N/A   Scattered Clouds
1:55 AM 46.0 °F - 45.0 °F 96% 30.06 in 6.0 mi Calm Calm - N/A   Clear
2:20 AM 44.6 °F - 42.8 °F 93% 30.06 in 1.5 mi Calm Calm - N/A   Partly Cloudy
2:23 AM 44.6 °F - 42.8 °F 93% 30.05 in 1.0 mi Calm Calm - N/A   Mist
2:30 AM 42.8 °F 41.1 °F 42.8 °F 100% 30.05 in 1.8 mi East 3.5 mph - N/A   Scattered Clouds
2:32 AM 42.8 °F - 42.8 °F 100% 30.05 in 3.0 mi Calm Calm - N/A   Scattered Clouds
2:42 AM 44.6 °F 43.1 °F 42.8 °F 93% 30.04 in 6.0 mi SE 3.5 mph - N/A   Mostly Cloudy
2:55 AM 45.0 °F 43.5 °F 44.1 °F 97% 30.04 in 6.0 mi ESE 3.5 mph - N/A   Overcast
3:25 AM 48.2 °F - 46.4 °F 93% 30.06 in 4.0 mi Calm Calm - N/A   Overcast
3:55 AM 46.9 °F - 46.9 °F 100% 30.06 in 6.0 mi East 3.5 mph - N/A   Overcast
4:35 AM 44.6 °F - 42.8 °F 93% 30.06 in 5.0 mi Calm Calm - N/A   Scattered Clouds
4:55 AM 43.0 °F 41.3 °F 43.0 °F 100% 30.06 in 3.0 mi ESE 3.5 mph - N/A   Clear
5:26 AM 42.8 °F - 41.0 °F 93% 30.08 in 1.5 mi Calm Calm - N/A   Clear
5:30 AM 42.8 °F - 42.8 °F 100% 30.07 in 0.8 mi Calm Calm - N/A   Clear
5:45 AM 42.8 °F - 42.8 °F 100% 30.08 in 1.5 mi Calm Calm - N/A   Clear
5:48 AM 42.8 °F - 42.8 °F 100% 30.08 in 3.0 mi Calm Calm - N/A   Clear
5:55 AM 42.1 °F - 41.0 °F 96% 30.09 in 3.0 mi Calm Calm - N/A   Partly Cloudy
6:32 AM 42.8 °F 41.1 °F 42.8 °F 100% 30.08 in 1.8 mi SE 3.5 mph - N/A   Partly Cloudy
6:34 AM 42.8 °F 40.1 °F 42.8 °F 100% 30.08 in 1.0 mi SE 4.6 mph - N/A   Mist
6:41 AM 42.8 °F - 42.8 °F 100% 30.08 in 0.8 mi Calm Calm - N/A   Mist
6:45 AM 42.8 °F - 42.8 °F 100% 30.08 in 1.2 mi Calm Calm - N/A   Scattered Clouds
6:55 AM 41.0 °F 38.0 °F 41.0 °F 100% 30.08 in 1.0 mi SE 4.6 mph - N/A   Mist
7:00 AM 41.0 °F 38.0 °F 41.0 °F 100% 30.08 in 1.5 mi SE 4.6 mph - N/A   Scattered Clouds
7:08 AM 42.8 °F 40.1 °F 42.8 °F 100% 30.08 in 3.0 mi ESE 4.6 mph - N/A   Clear
7:55 AM 46.0 °F 43.9 °F 45.0 °F 96% 30.09 in 8.0 mi ESE 4.6 mph - N/A   Clear
8:55 AM 50.0 °F - 46.0 °F 86% 30.08 in 10.0 mi East 6.9 mph - N/A   Clear
9:55 AM 53.1 °F - 46.0 °F 77% 30.07 in 10.0 mi East 4.6 mph - N/A   Clear
10:55 AM 55.9 °F - 43.0 °F 62% 30.06 in 10.0 mi ESE 12.7 mph - N/A   Partly Cloudy
11:55 AM 60.1 °F - 44.1 °F 55% 30.05 in 10.0 mi ESE 10.4 mph - N/A   Clear
12:55 PM 61.0 °F - 44.1 °F 54% 30.03 in 10.0 mi ESE 9.2 mph - N/A   Clear
1:55 PM 60.1 °F - 44.1 °F 55% 30.00 in 10.0 mi SE 9.2 mph - N/A   Clear
2:55 PM 59.0 °F - 46.0 °F 62% 29.97 in 10.0 mi East 5.8 mph - N/A   Clear
3:55 PM 59.0 °F - 43.0 °F 55% 29.97 in 10.0 mi ESE 9.2 mph - N/A   Clear
4:55 PM 57.0 °F - 43.0 °F 59% 29.98 in 10.0 mi SE 11.5 mph - N/A   Clear
5:55 PM 57.0 °F - 42.1 °F 57% 29.99 in 10.0 mi SE 10.4 mph - N/A   Clear
6:55 PM 57.9 °F - 41.0 °F 53% 29.98 in 10.0 mi SE 9.2 mph - N/A   Clear
7:55 PM 57.0 °F - 39.9 °F 53% 29.97 in 10.0 mi SE 4.6 mph - N/A   Clear
8:55 PM 57.0 °F - 39.0 °F 51% 29.98 in 10.0 mi ESE 8.1 mph - N/A   Clear
9:55 PM 57.0 °F - 39.0 °F 51% 29.97 in 10.0 mi ESE 11.5 mph - N/A   Clear
10:55 PM 55.9 °F - 39.9 °F 55% 29.98 in 10.0 mi East 9.2 mph - N/A   Clear
11:55 PM 55.0 °F - 41.0 °F 59% 30.00 in 10.0 mi Calm Calm - N/A   Partly Cloudy